This is the latest recevied weather packets stored in our database for station/object K2YYD-2. If no packets are shown the sender has not sent any weather packets the latest 10 day(s).
| Time | Temp. | Humidity | Pressure | Rain* | Wind** | Luminosity | Snow |
|---|---|---|---|---|---|---|---|
| 1787508307 | 27.22° C | 66% | 1005.5 hPa | 0 mm | - | 140 W/m² | - |
| 1787508186 | 27.22° C | 66% | 1005.5 hPa | 0 mm | - | 166 W/m² | - |
| 1787508067 | 27.22° C | 64% | 1005.5 hPa | 0 mm | - | 136 W/m² | - |
| 1787507945 | 27.22° C | 65% | 1005.5 hPa | 0 mm | - | 143 W/m² | - |
| 1787507825 | 27.22° C | 65% | 1005.5 hPa | 0 mm | - | 132 W/m² | - |
| 1787507694 | 27.22° C | 65% | 1005.5 hPa | 0 mm | - | 154 W/m² | - |
| 1787507575 | 26.67° C | 66% | 1005.5 hPa | 0 mm | - | 173 W/m² | - |
| 1787507454 | 26.67° C | 66% | 1005.5 hPa | 0 mm | - | 185 W/m² | - |
| 1787507332 | 26.67° C | 68% | 1005.5 hPa | 0 mm | - | 168 W/m² | - |
| 1787507208 | 26.67° C | 68% | 1005.5 hPa | 0 mm | - | 193 W/m² | - |
| 1787507089 | 26.67° C | 68% | 1005.5 hPa | 0 mm | - | 187 W/m² | - |
| 1787506969 | 26.67° C | 66% | 1005.5 hPa | 0 mm | - | 207 W/m² | - |
| 1787506842 | 26.67° C | 67% | 1005.5 hPa | 0 mm | - | 143 W/m² | - |
| 1787506723 | 26.67° C | 66% | 1005.4 hPa | 0 mm | - | 119 W/m² | - |
| 1787506603 | 26.67° C | 65% | 1005.4 hPa | 0 mm | - | 118 W/m² | - |
| 1787506488 | 26.67° C | 65% | 1005.4 hPa | 0 mm | - | 229 W/m² | - |
| 1787506359 | 26.67° C | 68% | 1005.5 hPa | 0 mm | - | 158 W/m² | - |
| 1787506239 | 26.67° C | 68% | 1005.5 hPa | 0 mm | - | 137 W/m² | - |
| 1787506119 | 26.67° C | 68% | 1005.5 hPa | 0 mm | - | 174 W/m² | - |
| 1787505998 | 26.67° C | 68% | 1005.5 hPa | 0 mm | - | 127 W/m² | - |
| 1787505884 | 26.67° C | 69% | 1005.6 hPa | 0 mm | - | 137 W/m² | - |
| 1787505758 | 26.67° C | 69% | 1005.6 hPa | 0 mm | - | 171 W/m² | - |
| 1787505638 | 26.67° C | 69% | 1005.6 hPa | 0 mm | - | 218 W/m² | - |
| 1787505518 | 26.67° C | 68% | 1005.6 hPa | 0 mm | - | 254 W/m² | - |
| 1787505399 | 26.67° C | 68% | 1005.6 hPa | 0 mm | - | 146 W/m² | - |
* Rain latest hour (hover to see other rain measurements)
** Current wind speed in m/s (hover to see current wind gust speed)